[[{"header":{"parameterUnit":"m.s-1","parameterCategory":1,"la1":30.2991,"la2":30.254,"lo1":-89.0895,"lo2":-89.0444,"dy":0.0017,"dx":0.0017,"nx":28,"ny":28,"refTime":"2024-12-05T09:00:00:Z","depth":0,"parameterNumber":2,"parameterNumberName":"U-component_of_WINDS"},"data":[0,0,0,0,0,0,0,0,0,0,0,0,0,0,0,0,0,0,0,0,0,0,0,0,0,0,0,0,0,0,0,0,0,0,0,0,0,0,0,0,0,0,0,0,0,0,0,0,0,0,0,0,0,0,0,0,0,0,-2.333,-2.3328,0,-2.3149,-2.3147,-2.3145,-2.3006,-2.3004,-2.3003,-2.3002,-2.2808,-2.2804,-2.28,0,0,0,0,0,0,0,0,0,0,0,0,0,-2.3548,-2.3545,-2.333,-2.3328,-2.3326,-2.3149,-2.3147,-2.3144,-2.3006,-2.3004,-2.3003,-2.3001,-2.2809,-2.2804,-2.28,0,0,0,0,0,0,0,0,0,0,0,0,0,-2.3419,-2.3544,-2.3331,-2.3235,-2.3225,-2.315,-2.3147,-2.3144,-2.3006,-2.3004,-2.3002,-2.3,-2.2811,-2.2805,-2.2799,-2.2801,0,0,-2.2781,-2.2778,0,0,0,0,0,0,0,0,-2.3426,-2.3411,-2.3252,-2.3242,-2.323,-2.3098,-2.3152,-2.3028,-2.3007,-2.3089,-2.3002,-2.2999,-2.2905,-2.2891,-2.2861,-2.2792,-2.2783,-2.278,-2.2777,-2.2774,-2.2772,0,0,0,0,0,0,0,-2.3436,-2.3418,-2.3258,-2.325,-2.3236,-2.3199,-2.3179,-2.3128,-2.301,-2.3082,-2.3071,-2.3052,-2.2899,-2.2868,-2.2856,-2.2781,-2.278,-2.2775,-2.2771,-2.2769,-2.2704,-2.2705,0,0,0,0,0,0,-2.346,-2.3426,-2.3264,-2.3253,-2.3326,-2.3197,-2.3174,-2.3142,-2.301,-2.2988,-2.3054,-2.3046,-2.2879,-2.2863,-2.2848,-2.2842,-2.2774,-2.2768,-2.2765,-2.2702,-2.2704,-2.2706,0,0,0,0,0,0,-2.3466,-2.3447,-2.3271,-2.3337,-2.3312,-2.3195,-2.3161,-2.314,-2.3108,-2.2989,-2.2967,-2.3044,-2.2876,-2.2857,-2.2814,-2.2833,-2.2766,-2.276,-2.27,-2.2702,-2.2705,-2.283,0,0,0,0,0,0,-2.3473,-2.345,-2.3451,-2.3338,-2.3309,-2.3243,-2.3162,-2.3138,-2.3099,-2.3088,-2.2974,-2.2953,-2.2873,-2.2824,-2.2809,-2.2824,-2.2756,-2.2697,-2.2701,-2.2704,-2.2823,-2.2837,-2.2848,0,0,0,0,0,-2.3481,-2.3491,-2.3452,-2.3433,-2.3308,-2.3244,-2.3227,-2.3138,-2.3102,-2.3101,-2.3024,-2.2957,-2.2835,-2.2821,-2.2802,-2.2816,-2.2696,-2.27,-2.2704,-2.2818,-2.2834,-2.2848,0,0,0,0,0,0,-2.3606,-2.3475,-2.3429,-2.3404,-2.3337,-2.3221,-2.3217,-2.3157,-2.3096,-2.3087,-2.2976,-2.2952,-2.2921,-2.2864,-2.2851,-2.2811,-2.2756,-2.2757,-2.285,-2.2864,-2.2876,-2.2889,-2.2751,0,0,0,0,0,-2.3632,-2.3594,-2.348,-2.3468,-2.3437,-2.3334,-2.3302,-2.324,-2.3164,-2.3134,-2.3054,-2.2981,-2.2926,-2.2892,-2.2834,-2.2815,-2.2788,-2.2816,-2.2828,-2.2838,-2.284,-2.2825,-2.2836,-2.2719,-2.2719,-2.2719,0,0,-2.3682,-2.3606,-2.3588,-2.3492,-2.3432,-2.3393,-2.331,-2.3272,-2.3241,-2.3127,-2.3083,-2.3022,-2.2933,-2.2903,-2.2885,-2.2854,-2.2866,-2.2844,-2.2853,-2.2848,-2.283,-2.2842,-2.2851,-2.2722,-2.2722,-2.2721,0,0,-2.3755,-2.3694,-2.3678,-2.3621,-2.3533,-2.3465,-2.3462,-2.3355,-2.3311,-2.3266,-2.318,-2.314,-2.3048,-2.2988,-2.2946,-2.2999,-2.2934,-2.2983,-2.3046,-2.3033,-2.3042,-2.305,-2.3068,-2.3076,-2.2985,-2.2986,-2.2986,0,-2.3828,-2.3768,-2.3677,-2.3644,-2.3604,-2.3503,-2.3485,-2.3433,-2.333,-2.3304,-2.3272,-2.3155,-2.3088,-2.3042,-2.3056,-2.3025,-2.3016,-2.2995,-2.3049,-2.3056,-2.3061,-2.3077,-2.3084,-2.2992,-2.2991,-2.2991,-2.299,0,-2.3862,-2.3822,-2.3819,-2.3727,-2.3686,-2.3661,-2.3564,-2.3533,-2.3475,-2.341,-2.3365,-2.3281,-2.3206,-2.319,-2.3131,-2.3136,-2.312,-2.307,-2.3012,-2.308,-2.3094,-2.3099,-2.3001,-2.2999,-2.2997,-2.2996,0,0,-2.4005,-2.3865,-2.3866,-2.3823,-2.372,-2.3685,-2.3656,-2.3585,-2.3561,-2.3494,-2.3465,-2.3391,-2.3344,-2.3296,-2.323,-2.3219,-2.3266,-2.317,-2.3166,-2.319,-2.3266,-2.3304,-2.3313,-2.3224,-2.3225,-2.3225,-2.3273,0,-2.4061,-2.4005,-2.3923,-2.3893,-2.3855,-2.3759,-2.3733,-2.3666,-2.3605,-2.3561,-2.3491,-2.344,-2.3383,-2.3354,-2.3339,-2.3264,-2.328,-2.3259,-2.3193,-2.3192,-2.3218,-2.3319,-2.3358,-2.3408,-2.3278,-2.3279,-2.3279,0,-2.4117,-2.406,-2.4027,-2.3929,-2.3909,-2.3888,-2.3817,-2.3777,-2.3699,-2.3655,-2.3604,-2.3533,-2.3494,-2.3444,-2.3389,-2.3377,-2.3345,-2.3304,-2.3304,-2.3293,-2.3239,-2.331,-2.3421,-2.3429,-2.3287,-2.3286,-2.3285,0,-2.4225,-2.4139,-2.4108,-2.4074,-2.3959,-2.3946,-2.3897,-2.3817,-2.378,-2.3718,-2.3692,-2.3626,-2.3588,-2.3537,-2.345,-2.3421,-2.3404,-2.3346,-2.3364,-2.3367,-2.3363,-2.3364,-2.347,-2.3345,-2.3345,-2.3345,-2.3345,0,-2.4294,-2.4278,-2.4155,-2.4137,-2.4115,-2.4021,-2.4001,-2.3943,-2.3873,-2.3839,-2.3752,-2.3722,-2.3609,-2.3565,-2.3496,-2.3461,-2.3444,-2.3406,-2.3388,-2.3413,-2.3418,-2.339,-2.3384,-2.3347,-2.3347,-2.3346,-2.3346,0,-2.441,-2.4327,-2.4288,-2.4184,-2.4157,-2.4146,-2.4055,-2.4032,-2.3967,-2.3925,-2.391,-2.3806,-2.375,-2.3659,-2.3575,-2.3528,-2.3505,-2.3475,-2.3533,-2.3522,-2.3545,-2.3544,-2.3635,-2.3641,-2.3515,-2.3516,-2.3517,0,-2.4459,-2.4445,-2.4341,-2.4314,-2.4269,-2.4226,-2.4189,-2.4096,-2.4061,-2.3972,-2.396,-2.3898,-2.3843,-2.3758,-2.3673,-2.3609,-2.3575,-2.3612,-2.3565,-2.3591,-2.3575,-2.3577,-2.3574,-2.3622,-2.3624,-2.3626,-2.3627,0,-2.4555,-2.4516,-2.4468,-2.4407,-2.4367,-2.4313,-2.4254,-2.4236,-2.4129,-2.4094,-2.4037,-2.3996,-2.3912,-2.3851,-2.3776,-2.3721,-2.3656,-2.3643,-2.3644,-2.3669,-2.3703,-2.3684,-2.3562,-2.3641,-2.3639,-2.3638,-2.3638,-2.3637,-2.4638,-2.4621,-2.4546,-2.4496,-2.4443,-2.4391,-2.4365,-2.4298,-2.4251,-2.4178,-2.4125,-2.4072,-2.3994,-2.3886,-2.3837,-2.3792,-2.3763,-2.3764,-2.3764,-2.3765,-2.3775,-2.3712,-2.3778,-2.3777,-2.3777,-2.3777,-2.3776,0,-2.4729,-2.4677,-2.4632,-2.4555,-2.4515,-2.4462,-2.4394,-2.4364,-2.432,-2.4254,-2.4204,-2.4139,-2.408,-2.3993,-2.3927,-2.3908,-2.3876,-2.3894,-2.3893,-2.3882,-2.3805,-2.3811,-2.3921,-2.3921,-2.3921,-2.3921,-2.3921,-2.3921,-2.4771,-2.4741,-2.4693,-2.4635,-2.4582,-2.4532,-2.4499,-2.445,-2.4397,-2.433,-2.4282,-2.4227,-2.4152,-2.408,-2.4023,-2.3999,-2.3978,-2.4005,-2.3971,-2.3901,-2.3887,-2.3874,-2.3879,-2.4001,-2.4001,-2.4051,-2.4051,-2.4052]},{"header":{"parameterUnit":"m.s-1","parameterCategory":1,"la1":30.2991,"la2":30.254,"lo1":-89.0895,"lo2":-89.0444,"dy":0.0017,"dx":0.0017,"nx":28,"ny":28,"refTime":"2024-12-05T09:00:00:Z","depth":0,"parameterNumber":3,"parameterNumberName":"V-component_of_WINDS"},"data":[0,0,0,0,0,0,0,0,0,0,0,0,0,0,0,0,0,0,0,0,0,0,0,0,0,0,0,0,0,0,0,0,0,0,0,0,0,0,0,0,0,0,0,0,0,0,0,0,0,0,0,0,0,0,0,0,0,0,1.7952,1.7952,0,1.8006,1.8007,1.8007,1.7942,1.794,1.7937,1.7935,1.7998,1.8001,1.8005,0,0,0,0,0,0,0,0,0,0,0,0,0,1.7799,1.7802,1.7952,1.7952,1.7953,1.8006,1.8007,1.8007,1.7943,1.794,1.7937,1.7934,1.7996,1.8001,1.8006,0,0,0,0,0,0,0,0,0,0,0,0,0,1.7861,1.7803,1.7951,1.7927,1.7925,1.8006,1.8007,1.8008,1.7943,1.794,1.7936,1.7933,1.7995,1.8001,1.8006,1.8116,0,0,1.8024,1.8027,0,0,0,0,0,0,0,0,1.7857,1.7867,1.793,1.7929,1.7927,1.7963,1.7976,1.8044,1.7944,1.7937,1.7935,1.7931,1.799,1.7996,1.8014,1.8119,1.8122,1.8025,1.8028,1.8031,1.8033,0,0,0,0,0,0,0,1.7853,1.7864,1.7973,1.7931,1.7929,1.7916,1.792,1.7988,1.7983,1.7937,1.7932,1.7939,1.7988,1.8009,1.8015,1.8122,1.8025,1.803,1.8034,1.8036,1.8321,1.8325,0,0,0,0,0,0,1.7851,1.7861,1.7972,1.7975,1.7882,1.7921,1.7927,1.7956,1.7982,1.7983,1.7942,1.7936,1.8,1.8008,1.8017,1.8147,1.8031,1.8037,1.804,1.8317,1.8322,1.8326,0,0,0,0,0,0,1.7848,1.7861,1.7969,1.7917,1.7929,1.7928,1.7961,1.7959,1.7979,1.7986,1.7986,1.7964,1.7998,1.8009,1.8092,1.8149,1.8039,1.8045,1.8312,1.8318,1.8324,1.8409,0,0,0,0,0,0,1.7844,1.7861,1.79,1.7918,1.7932,1.8041,1.7964,1.7962,1.7988,1.7981,1.8006,1.8007,1.7996,1.8083,1.8097,1.8155,1.8049,1.8307,1.8315,1.8322,1.8401,1.8417,1.8431,0,0,0,0,0,1.7838,1.7923,1.7903,1.7916,1.7982,1.8044,1.8053,1.8036,1.7993,1.8034,1.8039,1.8006,1.814,1.8092,1.8108,1.8168,1.8303,1.8313,1.8321,1.8394,1.8414,1.843,0,0,0,0,0,0,1.7915,1.7925,1.7902,1.7995,1.8019,1.8033,1.8084,1.8058,1.8096,1.8088,1.8068,1.8074,1.8162,1.8173,1.812,1.8276,1.8215,1.8228,1.8265,1.8284,1.8298,1.8294,1.8054,0,0,0,0,0,1.7942,1.799,1.7997,1.8079,1.8091,1.8086,1.8113,1.8098,1.8123,1.8134,1.8144,1.8172,1.822,1.8253,1.8298,1.8402,1.8408,1.8452,1.8466,1.8479,1.849,1.8547,1.8567,1.8356,1.8356,1.8356,0,0,1.8,1.8011,1.8043,1.8094,1.8111,1.8163,1.8095,1.8153,1.8192,1.8143,1.8221,1.8231,1.826,1.8354,1.8397,1.8367,1.8549,1.849,1.85,1.8504,1.8558,1.8578,1.8596,1.8362,1.8361,1.836,0,0,1.8131,1.8144,1.8213,1.8231,1.8257,1.8253,1.8269,1.8288,1.8291,1.8369,1.8334,1.8381,1.8465,1.8487,1.851,1.8651,1.8622,1.8666,1.8744,1.88,1.8817,1.8831,1.8882,1.89,1.8677,1.8678,1.8678,0,1.82,1.8274,1.8253,1.8313,1.8337,1.8293,1.8364,1.8384,1.8424,1.8443,1.8408,1.8512,1.8529,1.8628,1.8663,1.8682,1.8702,1.8663,1.8815,1.883,1.8843,1.8892,1.8911,1.8683,1.8682,1.8682,1.8681,0,1.8358,1.8411,1.8464,1.8501,1.8531,1.8597,1.8588,1.8622,1.8605,1.8605,1.8686,1.8705,1.8753,1.8776,1.876,1.8873,1.8854,1.8818,1.8756,1.8869,1.8914,1.8932,1.869,1.8688,1.8687,1.8685,0,0,1.8539,1.8563,1.8583,1.8599,1.8625,1.8666,1.8731,1.8775,1.8805,1.8835,1.889,1.8962,1.8929,1.8954,1.8942,1.8991,1.9102,1.8949,1.8949,1.8977,1.9228,1.9255,1.9277,1.9083,1.9087,1.9089,1.9226,0,1.867,1.8778,1.8761,1.8868,1.8917,1.8876,1.8933,1.8956,1.8959,1.9003,1.9006,1.9058,1.901,1.9025,1.9072,1.9078,1.9152,1.9068,1.9136,1.9138,1.9129,1.93,1.9329,1.9456,1.9243,1.9246,1.9249,0,1.8837,1.8871,1.8981,1.8999,1.9019,1.9069,1.911,1.9152,1.9178,1.9177,1.9206,1.9184,1.9251,1.9189,1.9282,1.9225,1.9252,1.926,1.9264,1.927,1.92,1.9311,1.9497,1.9516,1.9276,1.9274,1.9272,0,1.8958,1.9031,1.9106,1.9122,1.9145,1.9181,1.9193,1.9216,1.9244,1.928,1.9299,1.9343,1.9368,1.9404,1.9396,1.9351,1.9492,1.9428,1.9494,1.9494,1.9525,1.9523,1.9718,1.9543,1.9542,1.9542,1.9541,0,1.9107,1.9176,1.9161,1.9207,1.9284,1.9265,1.9343,1.935,1.9371,1.942,1.9389,1.9436,1.9422,1.947,1.9465,1.9543,1.9555,1.9557,1.9554,1.9559,1.9559,1.9576,1.9567,1.9547,1.9546,1.9545,1.9544,0,1.9254,1.9247,1.9326,1.9341,1.9346,1.9403,1.9416,1.9461,1.9461,1.9524,1.9538,1.9539,1.9593,1.9589,1.965,1.9647,1.9744,1.9731,1.9734,1.9731,1.9797,1.9791,2.001,2.0038,1.9844,1.9846,1.9848,0,1.9349,1.9401,1.9421,1.945,1.9464,1.9512,1.954,1.9524,1.9555,1.9589,1.9631,1.9682,1.9721,1.981,1.9818,1.9866,1.9854,1.9928,1.9861,1.9864,1.9855,1.9852,1.9858,1.9941,1.9943,1.9945,1.9946,0,1.9519,1.9513,1.9553,1.9592,1.9626,1.9657,1.9686,1.9712,1.97,1.9737,1.979,1.9821,1.9883,1.9935,1.998,1.9994,1.997,1.9967,1.9985,1.999,1.999,1.9991,1.977,1.9962,1.996,1.9959,1.9958,1.9958,1.9644,1.9688,1.9708,1.9755,1.9774,1.9801,1.9844,1.9848,1.9892,1.994,1.9929,1.999,2.0016,2.0074,2.0093,2.0142,2.0116,2.0141,2.0148,2.0154,2.0162,1.9982,2.015,2.015,2.0149,2.0149,2.0149,0,1.9812,1.9823,1.9866,1.9905,1.9942,1.9912,1.9942,1.9976,2.0029,2.0055,2.0094,2.0156,2.0206,2.0218,2.0267,2.0304,2.0294,2.0317,2.0314,2.0318,2.0182,2.0162,2.0324,2.0324,2.0324,2.0324,2.0324,2.0324,1.9904,1.9977,1.9974,2.0057,2.0068,2.0126,2.0145,2.0171,2.0191,2.0261,2.0302,2.0308,2.0329,2.0379,2.0424,2.0426,2.0446,2.0474,2.0473,2.0345,2.0328,2.0311,2.0292,2.0479,2.0479,2.0604,2.0605,2.0606]}]]